Location: Bagnolo San Vito
(45.0833°N, 10.8833°E)
Time: 23:46:40
(UTC+00:00)

Cosmos 1470 Rocket - Pass Details

Date: 03 March 2021
Orbit: 603 x 634 km, 82.5° (Epoch: 17 April)

Event Time Altitude Azimuth Distance (km) Brightness Sun altitude
Rises 18:34:44 0° 200° (SSW) 2,917 7.2 -16.3°
Reaches altitude 10° 18:37:01 10° 205° (SSW) 2,012 6.4 -16.7°
Maximum altitude 18:41:22 52° 282° (WNW) 785 4.5 -17.5°
Drops below altitude 10° 18:45:45 10° 359° (N) 2,015 6.3 -18.2°
Sets 18:48:02 0° 5° (N) 2,923 7.1 -18.6°
